ONEWEB-0035 (45143 NORAD) Tracking and Keplerian Element Data

This shows tracking and keplerian element data for the satellite.

Feedback or suggestion? Click here.




ElementValue
Catalog45143
NameONEWEB-0035
Epoch Orbit940
Epoch Day94.12531757
Epoch Year2020
RAAN145.4673
Inclination87.4417
Eccentricity0.0025286
Argument of Perigee98.1276
Mean Anonmoly262.2811
Mean Motion14.70093563
Decay Rate-0.00351202
L11 45143U 20008N 20094.12531757 -.00351202 00000-0 -61289-1 0 9995
L22 45143 87.4417 145.4673 0025286 98.1276 262.2811 14.70093563 9409

Live tracking and technical data element details for ONEWEB-0035 (NORAD 45143). ONEWEB-0035 can be tracked NOW for your location showing map with azimuth and elevation plus other details from your city location.

Track the satellite on the map from your city or location and see movement details for azimuth, elevation, latitude, longitude, range, height, and movement on the map or in text.







IsCatalogInMostPopularTable: catalog: 45143, numindb: 10
Update: records affected: 1



GetName: 45143 ONEWEB-0035

Hit Count: updated at: Tue, 07 Apr 2020 17:32:22 GMT